Simultaneous Nadir Overpasses (SNOs) Predictions

Prediction of SNOs between METOP-B and NOAA-19 Satellite Orbit:

Table of predicted SNOs for the next 14.0 days since TLE Epoch: 8/24/2018
Index Date (METOP-B) Time (METOP-B) Lat,Lon (METOP-B) SZA (METOP-B ) Date (NOAA-19) Time (NOAA-19) Lat,Lon (NOAA-19) SZA (NOAA-19 ) Distance(km) Time Diff (sec)
1 09/01/2018 16:06:06 78.76, -49.85 70.81 09/01/2018 16:04:55 78.75, -51.43 70.74 34.38 71
2 09/01/2018 16:56:51 -78.63, 116.71 109.33 09/01/2018 16:55:49 -78.63, 116.70 109.34 0.49 62
3 09/01/2018 17:47:31 78.63, -76.01 70.68 09/01/2018 17:46:52 78.61, -75.94 70.66 2.09 39
4 09/01/2018 18:38:13 -78.62, 91.26 109.33 09/01/2018 18:37:50 -78.63, 91.22 109.32 1.60 23
5 09/01/2018 19:28:53 78.61,-101.46 70.68 09/01/2018 19:28:53 78.61,-101.42 70.68 0.89 0
6 09/01/2018 20:19:35 -78.60, 65.81 109.32 09/01/2018 20:19:51 -78.63, 65.74 109.30 3.47 16
7 09/01/2018 21:10:15 78.59,-126.91 70.68 09/01/2018 21:10:54 78.61,-126.91 70.71 2.28 39
8 09/01/2018 22:00:57 -78.58, 40.35 109.32 09/01/2018 22:01:51 -78.59, 40.49 109.30 3.24 54
9 09/01/2018 22:51:41 78.41,-153.27 70.50 09/01/2018 22:52:51 78.46,-151.44 70.63 41.23 70




NCC Satellite Simultaneous Nadir Overpasses (SNOs) Prediction Service
